Flag for Canada Weather past 2 weeks in Moncton, New Brunswick, Canada

Now
82 °F

Partly sunny.


Feels Like: 83 °F
Forecast: 59 / 86 °F
Wind: 14 mph from Southwest

Location: Moncton

Current Time: Jul 22, 2014 at 2:54:39 PM

Latest Report: Jul 22, 2014 at 1:00 PM


Visibility: 15 mi

Pressure: 30.01 "Hg

Humidity: 51%

Dew point: 63 °F

Location of MonctonLocation

Historic Weather in Moncton — Graph

°F

Moncton temperature yesterday

Maximum temperature yesterday: 81 °F (at 3:00 PM)
Minimum temperature yesterday: 64 °F (at 5:00 AM)
Average temperature yesterday: 71 °F

Past Weeks' High & Low Weather Summary

 TemperatureHumidityPressure
High84 °F (Jul 8, 5:00 PM)100% (Jul 8, 4:00 AM)30.26 "Hg (Jul 8, 4:00 AM)
Low54 °F (Jul 12, 5:00 AM)37% (Jul 12, 2:00 PM)29.68 "Hg (Jul 8, 6:00 AM)
Average70 °F74%29.97 "Hg
* Reported Jul 7 1:00 PM — Jul 22 1:00 PM, Moncton, Weather by CustomWeather, © 2014

Note: Actual official high and low records may vary slightly from our data, if they occured in-between our weather recording intervals... More about our weather records

Advertising

Moncton weather history for previous 24 hours

 ConditionsComfort  
Time TempWeatherWind HumidityBarometerVisibility
1:00 PM
Jul 22
82 °FPartly sunny.14 mph51%30.01 "Hg15 mi
12:00 PM81 °FPassing clouds.13 mph54%30.03 "Hg15 mi
11:00 AM77 °FPassing clouds.12 mph61%30.05 "Hg15 mi
10:00 AM75 °FPassing clouds.10 mph65%30.05 "Hg15 mi
9:00 AM70 °FSunny.9 mph73%30.05 "Hg15 mi
8:00 AM64 °FPassing clouds.7 mph83%30.06 "Hg15 mi
7:00 AM61 °FPassing clouds.7 mph83%30.07 "Hg15 mi
6:00 AM59 °FPassing clouds.7 mph82%30.08 "Hg15 mi
5:00 AM61 °FPartly cloudy.7 mph77%30.07 "Hg15 mi
4:00 AM61 °FPartly cloudy.7 mph77%30.07 "Hg15 mi
3:00 AM61 °FPassing clouds.6 mph77%30.08 "Hg15 mi
2:00 AM61 °FPassing clouds.7 mph77%30.09 "Hg15 mi
1:00 AM61 °FPassing clouds.8 mph77%30.10 "Hg15 mi
12:00 AM63 °FPassing clouds.7 mph68%30.11 "Hg15 mi
11:00 PM
Jul 21
64 °FPassing clouds.7 mph68%30.11 "Hg15 mi
10:00 PM68 °FScattered clouds.6 mph53%30.10 "Hg15 mi
9:00 PM70 °FScattered clouds.6 mph57%30.09 "Hg15 mi
8:00 PM73 °FBroken clouds.7 mph53%30.09 "Hg15 mi
7:00 PM77 °FPartly sunny.8 mph42%30.10 "Hg15 mi
6:00 PM79 °FPartly sunny.7 mph48%30.10 "Hg15 mi
5:00 PM79 °FPartly sunny.5 mph48%30.12 "Hg15 mi
4:00 PM79 °FPartly sunny.9 mph48%30.13 "Hg15 mi
3:00 PM81 °FPartly sunny.10 mph45%30.14 "Hg15 mi
2:00 PM79 °FPartly sunny.5 mph48%30.15 "Hg15 mi
Weather by CustomWeather, © 2014

See weather overviewHow to use our weather pages